Year,Month,Day,Hour,Minute,Value (Times are PST for temperature in C)
2010,02,22,00,00,3.30
2010,02,22,00,01,3.40
2010,02,22,00,02,3.40
2010,02,22,00,03,3.50
2010,02,22,00,04,3.50
2010,02,22,00,05,3.60
2010,02,22,00,06,3.60
2010,02,22,00,07,3.70
2010,02,22,00,08,3.80
2010,02,22,00,09,3.80
2010,02,22,00,10,3.80
2010,02,22,00,11,3.90
2010,02,22,00,12,3.90
2010,02,22,00,13,3.90
2010,02,22,00,14,4.00
2010,02,22,00,15,4.00
2010,02,22,00,16,4.00
2010,02,22,00,17,4.00
2010,02,22,00,18,4.00
2010,02,22,00,19,4.00
2010,02,22,00,20,4.00
2010,02,22,00,21,4.00
2010,02,22,00,22,4.00
2010,02,22,00,23,4.00
2010,02,22,00,24,4.00
2010,02,22,00,25,4.00
2010,02,22,00,26,4.00
2010,02,22,00,27,4.00
2010,02,22,00,28,4.00
2010,02,22,00,29,4.00
2010,02,22,00,30,4.00
2010,02,22,00,31,4.00
2010,02,22,00,32,3.90
2010,02,22,00,33,3.90
2010,02,22,00,34,3.90
2010,02,22,00,35,3.80
2010,02,22,00,36,3.70
2010,02,22,00,37,3.60
2010,02,22,00,38,3.30
2010,02,22,00,39,3.10
2010,02,22,00,40,2.90
2010,02,22,00,41,2.70
2010,02,22,00,42,2.60
2010,02,22,00,43,2.50
2010,02,22,00,44,2.40
2010,02,22,00,45,2.30
2010,02,22,00,46,2.20
2010,02,22,00,47,2.20
2010,02,22,00,48,2.20
2010,02,22,00,49,2.20
2010,02,22,00,50,2.20
2010,02,22,00,51,2.20
2010,02,22,00,52,2.20
2010,02,22,00,53,2.20
2010,02,22,00,54,2.20
2010,02,22,00,55,2.20
2010,02,22,00,56,2.20
2010,02,22,00,57,2.20
2010,02,22,00,58,2.10
2010,02,22,00,59,2.10
2010,02,22,01,00,2.10
2010,02,22,01,01,2.20
2010,02,22,01,02,2.20
2010,02,22,01,03,2.20
2010,02,22,01,04,2.20
2010,02,22,01,05,2.10
2010,02,22,01,06,2.10
2010,02,22,01,07,2.10
2010,02,22,01,08,2.00
2010,02,22,01,09,2.00
2010,02,22,01,10,1.90
2010,02,22,01,11,1.90
2010,02,22,01,12,1.80
2010,02,22,01,13,1.80
2010,02,22,01,14,1.70
2010,02,22,01,15,1.70
2010,02,22,01,16,1.60
2010,02,22,01,17,1.60
2010,02,22,01,18,1.50
2010,02,22,01,19,1.50
2010,02,22,01,20,1.50
2010,02,22,01,21,1.50
2010,02,22,01,22,1.50
2010,02,22,01,23,1.50
2010,02,22,01,24,1.50
2010,02,22,01,25,1.50
2010,02,22,01,26,1.50
2010,02,22,01,27,1.50
2010,02,22,01,28,1.50
2010,02,22,01,29,1.50
2010,02,22,01,30,1.50
2010,02,22,01,31,1.50
2010,02,22,01,32,1.50
2010,02,22,01,33,1.50
2010,02,22,01,34,1.50
2010,02,22,01,35,1.50
2010,02,22,01,36,1.50
2010,02,22,01,37,1.50
2010,02,22,01,38,1.50
2010,02,22,01,39,1.40
2010,02,22,01,40,1.40
2010,02,22,01,41,1.40
2010,02,22,01,42,1.40
2010,02,22,01,43,1.30
2010,02,22,01,44,1.30
2010,02,22,01,45,1.30
2010,02,22,01,46,1.30
2010,02,22,01,47,1.30
2010,02,22,01,48,1.30
2010,02,22,01,49,1.30
2010,02,22,01,50,1.30
2010,02,22,01,51,1.30
2010,02,22,01,52,1.30
2010,02,22,01,53,1.20
2010,02,22,01,54,1.20
2010,02,22,01,55,1.10
2010,02,22,01,56,1.10
2010,02,22,01,57,1.00
2010,02,22,01,58,1.00
2010,02,22,01,59,1.00
2010,02,22,02,00,0.90
2010,02,22,02,01,0.90
2010,02,22,02,02,0.80
2010,02,22,02,03,0.80
2010,02,22,02,04,0.80
2010,02,22,02,05,0.70
2010,02,22,02,06,0.70
2010,02,22,02,07,0.60
2010,02,22,02,08,0.60
2010,02,22,02,09,0.50
2010,02,22,02,10,0.50
2010,02,22,02,11,0.40
2010,02,22,02,12,0.40
2010,02,22,02,13,0.40
2010,02,22,02,14,0.30
2010,02,22,02,15,0.30
2010,02,22,02,16,0.30
2010,02,22,02,17,0.30
2010,02,22,02,18,0.30
2010,02,22,02,19,0.30
2010,02,22,02,20,0.30
2010,02,22,02,21,0.30
2010,02,22,02,22,0.30
2010,02,22,02,23,0.30
2010,02,22,02,24,0.30
2010,02,22,02,25,0.30
2010,02,22,02,26,0.30
2010,02,22,02,27,0.30
2010,02,22,02,28,0.30
2010,02,22,02,29,0.30
2010,02,22,02,30,0.30
2010,02,22,02,31,0.30
2010,02,22,02,32,0.30
2010,02,22,02,33,0.30
2010,02,22,02,34,0.30
2010,02,22,02,35,0.30
2010,02,22,02,36,0.30
2010,02,22,02,37,0.20
2010,02,22,02,38,0.20
2010,02,22,02,39,0.10
2010,02,22,02,40,0.10
2010,02,22,02,41,0.10
2010,02,22,02,42,0.10
2010,02,22,02,43,0.00
2010,02,22,02,44,-0.10
2010,02,22,02,45,-0.10
2010,02,22,02,46,-0.10
2010,02,22,02,47,-0.10
2010,02,22,02,48,-0.10
2010,02,22,02,49,-0.10
2010,02,22,02,50,0.00
2010,02,22,02,51,0.10
2010,02,22,02,52,0.20
2010,02,22,02,53,0.20
2010,02,22,02,54,0.30
2010,02,22,02,55,0.40
2010,02,22,02,56,0.40
2010,02,22,02,57,0.40
2010,02,22,02,58,0.40
2010,02,22,02,59,0.40
2010,02,22,03,00,0.30
2010,02,22,03,01,0.30
2010,02,22,03,02,0.30
2010,02,22,03,03,0.20
2010,02,22,03,04,0.20
2010,02,22,03,05,0.10
2010,02,22,03,06,0.10
2010,02,22,03,07,0.10
2010,02,22,03,08,0.10
2010,02,22,03,09,0.10
2010,02,22,03,10,0.10
2010,02,22,03,11,0.20
2010,02,22,03,12,0.30
2010,02,22,03,13,0.30
2010,02,22,03,14,0.30
2010,02,22,03,15,0.40
2010,02,22,03,16,0.40
2010,02,22,03,17,0.40
2010,02,22,03,18,0.50
2010,02,22,03,19,0.50
2010,02,22,03,20,0.60
2010,02,22,03,21,0.60
2010,02,22,03,22,0.70
2010,02,22,03,23,0.70
2010,02,22,03,24,0.80
2010,02,22,03,25,0.90
2010,02,22,03,26,1.20
2010,02,22,03,27,1.40
2010,02,22,03,28,1.60
2010,02,22,03,29,1.80
2010,02,22,03,30,1.90
2010,02,22,03,31,2.00
2010,02,22,03,32,2.10
2010,02,22,03,33,2.10
2010,02,22,03,34,2.10
2010,02,22,03,35,2.20
2010,02,22,03,36,2.20
2010,02,22,03,37,2.20
2010,02,22,03,38,2.30
2010,02,22,03,39,2.40
2010,02,22,03,40,2.50
2010,02,22,03,41,2.50
2010,02,22,03,42,2.60
2010,02,22,03,43,2.70
2010,02,22,03,44,2.70
2010,02,22,03,45,2.70
2010,02,22,03,46,2.70
2010,02,22,03,47,2.70
2010,02,22,03,48,2.70
2010,02,22,03,49,2.70
2010,02,22,03,50,2.70
2010,02,22,03,51,2.70
2010,02,22,03,52,2.70
2010,02,22,03,53,2.70
2010,02,22,03,54,2.70
2010,02,22,03,55,2.70
2010,02,22,03,56,2.80
2010,02,22,03,57,2.80
2010,02,22,03,58,2.80
2010,02,22,03,59,2.80
2010,02,22,04,00,2.80
2010,02,22,04,01,2.80
2010,02,22,04,02,2.80
2010,02,22,04,03,2.80
2010,02,22,04,04,2.80
2010,02,22,04,05,2.80
2010,02,22,04,06,2.80
2010,02,22,04,07,2.90
2010,02,22,04,08,2.90
2010,02,22,04,09,2.80
2010,02,22,04,10,2.80
2010,02,22,04,11,2.80
2010,02,22,04,12,2.90
2010,02,22,04,13,2.90
2010,02,22,04,14,2.80
2010,02,22,04,15,2.80
2010,02,22,04,16,2.80
2010,02,22,04,17,2.80
2010,02,22,04,18,2.80
2010,02,22,04,19,2.80
2010,02,22,04,20,2.80
2010,02,22,04,21,2.80
2010,02,22,04,22,2.80
2010,02,22,04,23,2.80
2010,02,22,04,24,2.80
2010,02,22,04,25,2.80
2010,02,22,04,26,2.80
2010,02,22,04,27,2.80
2010,02,22,04,28,2.80
2010,02,22,04,29,2.80
2010,02,22,04,30,2.80
2010,02,22,04,31,2.80
2010,02,22,04,32,2.80
2010,02,22,04,33,2.70
2010,02,22,04,34,2.70
2010,02,22,04,35,2.70
2010,02,22,04,36,2.70
2010,02,22,04,37,2.70
2010,02,22,04,38,2.70
2010,02,22,04,39,2.70
2010,02,22,04,40,2.70
2010,02,22,04,41,2.70
2010,02,22,04,42,2.70
2010,02,22,04,43,2.70
2010,02,22,04,44,2.80
2010,02,22,04,45,2.80
2010,02,22,04,46,2.80
2010,02,22,04,47,2.80
2010,02,22,04,48,2.90
2010,02,22,04,49,2.90
2010,02,22,04,50,2.90
2010,02,22,04,51,2.90
2010,02,22,04,52,2.90
2010,02,22,04,53,2.90
2010,02,22,04,54,2.90
2010,02,22,04,55,2.90
2010,02,22,04,56,2.90
2010,02,22,04,57,2.90
2010,02,22,04,58,2.90
2010,02,22,04,59,2.90
2010,02,22,05,00,2.90
2010,02,22,05,01,2.90
2010,02,22,05,02,2.90
2010,02,22,05,03,2.90
2010,02,22,05,04,2.90
2010,02,22,05,05,2.90
2010,02,22,05,06,2.90
2010,02,22,05,07,2.90
2010,02,22,05,08,2.90
2010,02,22,05,09,2.90
2010,02,22,05,10,2.90
2010,02,22,05,11,2.90
2010,02,22,05,12,2.90
2010,02,22,05,13,2.90
2010,02,22,05,14,2.90
2010,02,22,05,15,2.90
2010,02,22,05,16,2.90
2010,02,22,05,17,2.80
2010,02,22,05,18,2.80
2010,02,22,05,19,2.80
2010,02,22,05,20,2.80
2010,02,22,05,21,2.80
2010,02,22,05,22,2.80
2010,02,22,05,23,2.80
2010,02,22,05,24,2.80
2010,02,22,05,25,2.80
2010,02,22,05,26,2.80
2010,02,22,05,27,2.80
2010,02,22,05,28,2.80
2010,02,22,05,29,2.70
2010,02,22,05,30,2.70
2010,02,22,05,31,2.80
2010,02,22,05,32,2.80
2010,02,22,05,33,2.80
2010,02,22,05,34,2.80
2010,02,22,05,35,2.80
2010,02,22,05,36,2.80
2010,02,22,05,37,2.80
2010,02,22,05,38,2.80
2010,02,22,05,39,2.80
2010,02,22,05,40,2.80
2010,02,22,05,41,2.80
2010,02,22,05,42,2.80
2010,02,22,05,43,2.80
2010,02,22,05,44,2.80
2010,02,22,05,45,2.80
2010,02,22,05,46,2.80
2010,02,22,05,47,2.70
2010,02,22,05,48,2.70
2010,02,22,05,49,2.70
2010,02,22,05,50,2.70
2010,02,22,05,51,2.70
2010,02,22,05,52,2.70
2010,02,22,05,53,2.70
2010,02,22,05,54,2.70
2010,02,22,05,55,2.70
2010,02,22,05,56,2.70
2010,02,22,05,57,2.70
2010,02,22,05,58,2.70
2010,02,22,05,59,2.70
2010,02,22,06,00,2.70
2010,02,22,06,01,2.70
2010,02,22,06,02,2.70
2010,02,22,06,03,2.60
2010,02,22,06,04,2.60
2010,02,22,06,05,2.60
2010,02,22,06,06,2.50
2010,02,22,06,07,2.50
2010,02,22,06,08,2.50
2010,02,22,06,09,2.40
2010,02,22,06,10,2.30
2010,02,22,06,11,2.20
2010,02,22,06,12,2.20
2010,02,22,06,13,2.10
2010,02,22,06,14,2.10
2010,02,22,06,15,2.00
2010,02,22,06,16,1.90
2010,02,22,06,17,1.80
2010,02,22,06,18,1.80
2010,02,22,06,19,1.70
2010,02,22,06,20,1.70
2010,02,22,06,21,1.60
2010,02,22,06,22,1.50
2010,02,22,06,23,1.40
2010,02,22,06,24,1.30
2010,02,22,06,25,1.30
2010,02,22,06,26,1.20
2010,02,22,06,27,1.20
2010,02,22,06,28,1.10
2010,02,22,06,29,1.10
2010,02,22,06,30,1.00
2010,02,22,06,31,1.00
2010,02,22,06,32,1.00
2010,02,22,06,33,1.00
2010,02,22,06,34,1.00
2010,02,22,06,35,0.90
2010,02,22,06,36,0.90
2010,02,22,06,37,1.00
2010,02,22,06,38,1.00
2010,02,22,06,39,1.00
2010,02,22,06,40,0.90
2010,02,22,06,41,1.00
2010,02,22,06,42,1.00
2010,02,22,06,43,1.00
2010,02,22,06,44,1.00
2010,02,22,06,45,1.00
2010,02,22,06,46,1.00
2010,02,22,06,47,1.00
2010,02,22,06,48,1.10
2010,02,22,06,49,1.10
2010,02,22,06,50,1.10
2010,02,22,06,51,1.10
2010,02,22,06,52,1.10
2010,02,22,06,53,1.00
2010,02,22,06,54,1.00
2010,02,22,06,55,1.00
2010,02,22,06,56,0.90
2010,02,22,06,57,0.90
2010,02,22,06,58,0.90
2010,02,22,06,59,0.80
2010,02,22,07,00,0.80
2010,02,22,07,01,0.70
2010,02,22,07,02,0.60
2010,02,22,07,03,0.50
2010,02,22,07,04,0.40
2010,02,22,07,05,0.30
2010,02,22,07,06,0.20
2010,02,22,07,07,0.20
2010,02,22,07,08,0.20
2010,02,22,07,09,0.20
2010,02,22,07,10,0.10
2010,02,22,07,11,0.10
2010,02,22,07,12,0.10
2010,02,22,07,13,0.10
2010,02,22,07,14,0.20
2010,02,22,07,15,0.20
2010,02,22,07,16,0.30
2010,02,22,07,17,0.40
2010,02,22,07,18,0.50
2010,02,22,07,19,0.70
2010,02,22,07,20,0.80
2010,02,22,07,21,0.90
2010,02,22,07,22,0.90
2010,02,22,07,23,1.00
2010,02,22,07,24,1.00
2010,02,22,07,25,1.00
2010,02,22,07,26,1.00
2010,02,22,07,27,1.00
2010,02,22,07,28,1.00
2010,02,22,07,29,1.00
2010,02,22,07,30,0.90
2010,02,22,07,31,0.80
2010,02,22,07,32,0.70
2010,02,22,07,33,0.60
2010,02,22,07,34,0.50
2010,02,22,07,35,0.40
2010,02,22,07,36,0.30
2010,02,22,07,37,0.30
2010,02,22,07,38,0.30
2010,02,22,07,39,0.30
2010,02,22,07,40,0.30
2010,02,22,07,41,0.30
2010,02,22,07,42,0.20
2010,02,22,07,43,0.20
2010,02,22,07,44,0.20
2010,02,22,07,45,0.10
2010,02,22,07,46,0.10
2010,02,22,07,47,0.20
2010,02,22,07,48,0.20
2010,02,22,07,49,0.40
2010,02,22,07,50,0.50
2010,02,22,07,51,0.60
2010,02,22,07,52,0.80
2010,02,22,07,53,1.00
2010,02,22,07,54,1.10
2010,02,22,07,55,1.20
2010,02,22,07,56,1.40
2010,02,22,07,57,1.40
2010,02,22,07,58,1.50
2010,02,22,07,59,1.60
2010,02,22,08,00,1.70
2010,02,22,08,01,1.80
2010,02,22,08,02,1.90
2010,02,22,08,03,1.90
2010,02,22,08,04,2.00
2010,02,22,08,05,2.10
2010,02,22,08,06,2.20
2010,02,22,08,07,2.30
2010,02,22,08,08,2.40
2010,02,22,08,09,2.50
2010,02,22,08,10,2.70
2010,02,22,08,11,2.80
2010,02,22,08,12,2.80
2010,02,22,08,13,2.90
2010,02,22,08,14,2.90
2010,02,22,08,15,3.10
2010,02,22,08,16,3.10
2010,02,22,08,17,3.10
2010,02,22,08,18,3.20
2010,02,22,08,19,3.30
2010,02,22,08,20,3.30
2010,02,22,08,21,3.30
2010,02,22,08,22,3.40
2010,02,22,08,23,3.50
2010,02,22,08,24,3.60
2010,02,22,08,25,3.70
2010,02,22,08,26,3.80
2010,02,22,08,27,3.80
2010,02,22,08,28,3.80
2010,02,22,08,29,3.90
2010,02,22,08,30,4.00
2010,02,22,08,31,4.00
2010,02,22,08,32,4.10
2010,02,22,08,33,4.10
2010,02,22,08,34,4.10
2010,02,22,08,35,4.20
2010,02,22,08,36,4.20
2010,02,22,08,37,4.20
2010,02,22,08,38,4.20
2010,02,22,08,39,4.30
2010,02,22,08,40,4.30
2010,02,22,08,41,4.40
2010,02,22,08,42,4.40
2010,02,22,08,43,4.40
2010,02,22,08,44,4.50
2010,02,22,08,45,4.50
2010,02,22,08,46,4.50
2010,02,22,08,47,4.60
2010,02,22,08,48,4.60
2010,02,22,08,49,4.60
2010,02,22,08,50,4.60
2010,02,22,08,51,4.70
2010,02,22,08,52,4.70
2010,02,22,08,53,4.70
2010,02,22,08,54,4.80
2010,02,22,08,55,4.80
2010,02,22,08,56,4.80
2010,02,22,08,57,4.80
2010,02,22,08,58,4.80
2010,02,22,08,59,4.80
2010,02,22,09,00,4.80
2010,02,22,09,01,4.80
2010,02,22,09,02,4.80
2010,02,22,09,03,4.90
2010,02,22,09,04,4.90
2010,02,22,09,05,4.90
2010,02,22,09,06,4.90
2010,02,22,09,07,4.90
2010,02,22,09,08,4.90
2010,02,22,09,09,4.90
2010,02,22,09,10,4.90
2010,02,22,09,11,4.90
2010,02,22,09,12,4.90
2010,02,22,09,13,4.90
2010,02,22,09,14,4.90
2010,02,22,09,15,4.90
2010,02,22,09,16,4.90
2010,02,22,09,17,4.90
2010,02,22,09,18,4.90
2010,02,22,09,19,4.90
2010,02,22,09,20,4.90
2010,02,22,09,21,4.90
2010,02,22,09,22,5.00
2010,02,22,09,23,5.00
2010,02,22,09,24,5.00
2010,02,22,09,25,5.10
2010,02,22,09,26,5.10
2010,02,22,09,27,5.10
2010,02,22,09,28,5.10
2010,02,22,09,29,5.10
2010,02,22,09,30,5.10
2010,02,22,09,31,5.10
2010,02,22,09,32,5.10
2010,02,22,09,33,5.10
2010,02,22,09,34,5.10
2010,02,22,09,35,5.10
2010,02,22,09,36,5.10
2010,02,22,09,37,5.10
2010,02,22,09,38,5.10
2010,02,22,09,39,5.10
2010,02,22,09,40,5.10
2010,02,22,09,41,5.10
2010,02,22,09,42,5.10
2010,02,22,09,43,5.10
2010,02,22,09,44,5.10
2010,02,22,09,45,5.10
2010,02,22,09,46,5.10
2010,02,22,09,47,5.20
2010,02,22,09,48,5.20
2010,02,22,09,49,5.20
2010,02,22,09,50,5.20
2010,02,22,09,51,5.30
2010,02,22,09,52,5.30
2010,02,22,09,53,5.30
2010,02,22,09,54,5.30
2010,02,22,09,55,5.30
2010,02,22,09,56,5.30
2010,02,22,09,57,5.30
2010,02,22,09,58,5.30
2010,02,22,09,59,5.30
2010,02,22,10,00,5.30
2010,02,22,10,01,5.30
2010,02,22,10,02,5.30
2010,02,22,10,03,5.40
2010,02,22,10,04,5.40
2010,02,22,10,05,5.40
2010,02,22,10,06,5.50
2010,02,22,10,07,5.50
2010,02,22,10,08,5.50
2010,02,22,10,09,5.40
2010,02,22,10,10,5.50
2010,02,22,10,11,5.50
2010,02,22,10,12,5.50
2010,02,22,10,13,5.50
2010,02,22,10,14,5.50
2010,02,22,10,15,5.60
2010,02,22,10,16,5.60
2010,02,22,10,17,5.70
2010,02,22,10,18,5.70
2010,02,22,10,19,5.70
2010,02,22,10,20,5.80
2010,02,22,10,21,5.80
2010,02,22,10,22,5.90
2010,02,22,10,23,5.90
2010,02,22,10,24,5.90
2010,02,22,10,25,5.90
2010,02,22,10,26,6.00
2010,02,22,10,27,6.00
2010,02,22,10,28,6.10
2010,02,22,10,29,6.10
2010,02,22,10,30,6.20
2010,02,22,10,31,6.20
2010,02,22,10,32,6.10
2010,02,22,10,33,6.10
2010,02,22,10,34,6.10
2010,02,22,10,35,6.10
2010,02,22,10,36,6.00
2010,02,22,10,37,6.00
2010,02,22,10,38,6.00
2010,02,22,10,39,6.10
2010,02,22,10,40,6.10
2010,02,22,10,41,6.20
2010,02,22,10,42,6.20
2010,02,22,10,43,6.20
2010,02,22,10,44,6.20
2010,02,22,10,45,6.20
2010,02,22,10,46,6.20
2010,02,22,10,47,6.20
2010,02,22,10,48,6.30
2010,02,22,10,49,6.30
2010,02,22,10,50,6.40
2010,02,22,10,51,6.50
2010,02,22,10,52,6.60
2010,02,22,10,53,6.60
2010,02,22,10,54,6.60
2010,02,22,10,55,6.60
2010,02,22,10,56,6.60
2010,02,22,10,57,6.60
2010,02,22,10,58,6.60
2010,02,22,10,59,6.60
2010,02,22,11,00,6.60
2010,02,22,11,01,6.60
2010,02,22,11,02,6.60
2010,02,22,11,03,6.60
2010,02,22,11,04,6.60
2010,02,22,11,05,6.60
2010,02,22,11,06,6.60
2010,02,22,11,07,6.60
2010,02,22,11,08,6.60
2010,02,22,11,09,6.60
2010,02,22,11,10,6.60
2010,02,22,11,11,6.60
2010,02,22,11,12,6.60
2010,02,22,11,13,6.60
2010,02,22,11,14,6.60
2010,02,22,11,15,6.70
2010,02,22,11,16,6.70
2010,02,22,11,17,6.80
2010,02,22,11,18,6.80
2010,02,22,11,19,6.80
2010,02,22,11,20,6.80
2010,02,22,11,21,6.80
2010,02,22,11,22,6.80
2010,02,22,11,23,6.80
2010,02,22,11,24,6.80
2010,02,22,11,25,6.90
2010,02,22,11,26,6.90
2010,02,22,11,27,7.00
2010,02,22,11,28,7.00
2010,02,22,11,29,7.00
2010,02,22,11,30,6.90
2010,02,22,11,31,6.90
2010,02,22,11,32,6.90
2010,02,22,11,33,6.80
2010,02,22,11,34,6.80
2010,02,22,11,35,6.80
2010,02,22,11,36,6.80
2010,02,22,11,37,6.80
2010,02,22,11,38,6.80
2010,02,22,11,39,6.70
2010,02,22,11,40,6.70
2010,02,22,11,41,6.60
2010,02,22,11,42,6.70
2010,02,22,11,43,6.70
2010,02,22,11,44,6.80
2010,02,22,11,45,6.80
2010,02,22,11,46,6.80
2010,02,22,11,47,6.80
2010,02,22,11,48,6.80
2010,02,22,11,49,6.80
2010,02,22,11,50,6.80
2010,02,22,11,51,6.80
2010,02,22,11,52,6.80
2010,02,22,11,53,6.90
2010,02,22,11,54,7.00
2010,02,22,11,55,7.00
2010,02,22,11,56,7.10
2010,02,22,11,57,7.20
2010,02,22,11,58,7.20
2010,02,22,11,59,7.30
2010,02,22,12,00,7.30
2010,02,22,12,01,7.30
2010,02,22,12,02,7.30
2010,02,22,12,03,7.30
2010,02,22,12,04,7.20
2010,02,22,12,05,7.20
2010,02,22,12,06,7.10
2010,02,22,12,07,7.10
2010,02,22,12,08,7.10
2010,02,22,12,09,7.10
2010,02,22,12,10,7.10
2010,02,22,12,11,7.10
2010,02,22,12,12,7.10
2010,02,22,12,13,7.00
2010,02,22,12,14,6.90
2010,02,22,12,15,6.90
2010,02,22,12,16,7.00
2010,02,22,12,17,7.00
2010,02,22,12,18,7.10
2010,02,22,12,19,7.10
2010,02,22,12,20,7.10
2010,02,22,12,21,7.10
2010,02,22,12,22,7.00
2010,02,22,12,23,7.00
2010,02,22,12,24,7.00
2010,02,22,12,25,7.00
2010,02,22,12,26,7.10
2010,02,22,12,27,7.20
2010,02,22,12,28,7.20
2010,02,22,12,29,7.20
2010,02,22,12,30,7.20
2010,02,22,12,31,7.20
2010,02,22,12,32,7.20
2010,02,22,12,33,7.20
2010,02,22,12,34,7.20
2010,02,22,12,35,7.20
2010,02,22,12,36,7.10
2010,02,22,12,37,7.10
2010,02,22,12,38,7.10
2010,02,22,12,39,7.20
2010,02,22,12,40,7.20
2010,02,22,12,41,7.30
2010,02,22,12,42,7.30
2010,02,22,12,43,7.30
2010,02,22,12,44,7.40
2010,02,22,12,45,7.40
2010,02,22,12,46,7.40
2010,02,22,12,47,7.30
2010,02,22,12,48,7.30
2010,02,22,12,49,7.30
2010,02,22,12,50,7.30
2010,02,22,12,51,7.30
2010,02,22,12,52,7.30
2010,02,22,12,53,7.30
2010,02,22,12,54,7.30
2010,02,22,12,55,7.40
2010,02,22,12,56,7.50
2010,02,22,12,57,7.50
2010,02,22,12,58,7.50
2010,02,22,12,59,7.50
2010,02,22,13,00,7.60
2010,02,22,13,01,7.60
2010,02,22,13,02,7.60
2010,02,22,13,03,7.60
2010,02,22,13,04,7.60
2010,02,22,13,05,7.70
2010,02,22,13,06,7.70
2010,02,22,13,07,7.80
2010,02,22,13,08,7.70
2010,02,22,13,09,7.60
2010,02,22,13,10,7.60
2010,02,22,13,11,7.70
2010,02,22,13,12,7.80
2010,02,22,13,13,7.80
2010,02,22,13,14,7.80
2010,02,22,13,15,7.80
2010,02,22,13,16,7.70
2010,02,22,13,17,7.70
2010,02,22,13,18,7.70
2010,02,22,13,19,7.60
2010,02,22,13,20,7.60
2010,02,22,13,21,7.60
2010,02,22,13,22,7.60
2010,02,22,13,23,7.70
2010,02,22,13,24,7.80
2010,02,22,13,25,7.90
2010,02,22,13,26,7.90
2010,02,22,13,27,7.90
2010,02,22,13,28,7.80
2010,02,22,13,29,7.80
2010,02,22,13,30,7.80
2010,02,22,13,31,7.90
2010,02,22,13,32,7.90
2010,02,22,13,33,8.00
2010,02,22,13,34,8.00
2010,02,22,13,35,8.00
2010,02,22,13,36,8.10
2010,02,22,13,37,8.10
2010,02,22,13,38,8.20
2010,02,22,13,39,8.10
2010,02,22,13,40,8.10
2010,02,22,13,41,8.00
2010,02,22,13,42,8.00
2010,02,22,13,43,8.00
2010,02,22,13,44,8.00
2010,02,22,13,45,8.00
2010,02,22,13,46,8.00
2010,02,22,13,47,8.10
2010,02,22,13,48,8.10
2010,02,22,13,49,8.20
2010,02,22,13,50,8.20
2010,02,22,13,51,8.20
2010,02,22,13,52,8.20
2010,02,22,13,53,8.30
2010,02,22,13,54,8.30
2010,02,22,13,55,8.20
2010,02,22,13,56,8.30
2010,02,22,13,57,8.30
2010,02,22,13,58,8.30
2010,02,22,13,59,8.40
2010,02,22,14,00,8.40
2010,02,22,14,01,8.40
2010,02,22,14,02,8.30
2010,02,22,14,03,8.30
2010,02,22,14,04,8.30
2010,02,22,14,05,8.30
2010,02,22,14,06,8.30
2010,02,22,14,07,8.40
2010,02,22,14,08,8.40
2010,02,22,14,09,8.40
2010,02,22,14,10,8.40
2010,02,22,14,11,8.50
2010,02,22,14,12,8.50
2010,02,22,14,13,8.50
2010,02,22,14,14,8.50
2010,02,22,14,15,8.60
2010,02,22,14,16,8.60
2010,02,22,14,17,8.70
2010,02,22,14,18,8.70
2010,02,22,14,19,8.70
2010,02,22,14,20,8.70
2010,02,22,14,21,8.70
2010,02,22,14,22,8.70
2010,02,22,14,23,8.70
2010,02,22,14,24,8.70
2010,02,22,14,25,8.80
2010,02,22,14,26,8.80
2010,02,22,14,27,8.90
2010,02,22,14,28,8.90
2010,02,22,14,29,8.80
2010,02,22,14,30,8.80
2010,02,22,14,31,8.70
2010,02,22,14,32,8.70
2010,02,22,14,33,8.70
2010,02,22,14,34,8.70
2010,02,22,14,35,8.80
2010,02,22,14,36,8.90
2010,02,22,14,37,8.90
2010,02,22,14,38,8.90
2010,02,22,14,39,8.80
2010,02,22,14,40,8.80
2010,02,22,14,41,8.70
2010,02,22,14,42,8.70
2010,02,22,14,43,8.70
2010,02,22,14,44,8.70
2010,02,22,14,45,8.70
2010,02,22,14,46,8.70
2010,02,22,14,47,8.80
2010,02,22,14,48,8.80
2010,02,22,14,49,8.80
2010,02,22,14,50,8.80
2010,02,22,14,51,8.80
2010,02,22,14,52,8.70
2010,02,22,14,53,8.70
2010,02,22,14,54,8.80
2010,02,22,14,55,8.80
2010,02,22,14,56,8.80
2010,02,22,14,57,8.90
2010,02,22,14,58,8.90
2010,02,22,14,59,8.90
2010,02,22,15,00,9.00
2010,02,22,15,01,9.00
2010,02,22,15,02,9.10
2010,02,22,15,03,9.10
2010,02,22,15,04,9.10
2010,02,22,15,05,9.10
2010,02,22,15,06,9.10
2010,02,22,15,07,9.10
2010,02,22,15,08,9.10
2010,02,22,15,09,9.10
2010,02,22,15,10,9.20
2010,02,22,15,11,9.10
2010,02,22,15,12,9.10
2010,02,22,15,13,9.10
2010,02,22,15,14,9.00
2010,02,22,15,15,9.00
2010,02,22,15,16,9.00
2010,02,22,15,17,9.00
2010,02,22,15,18,9.00
2010,02,22,15,19,9.10
2010,02,22,15,20,9.00
2010,02,22,15,21,9.00
2010,02,22,15,22,9.00
2010,02,22,15,23,9.10
2010,02,22,15,24,9.10
2010,02,22,15,25,9.10
2010,02,22,15,26,9.10
2010,02,22,15,27,9.10
2010,02,22,15,28,9.20
2010,02,22,15,29,9.20
2010,02,22,15,30,9.20
2010,02,22,15,31,9.20
2010,02,22,15,32,9.20
2010,02,22,15,33,9.20
2010,02,22,15,34,9.20
2010,02,22,15,35,9.20
2010,02,22,15,36,9.20
2010,02,22,15,37,9.20
2010,02,22,15,38,9.20
2010,02,22,15,39,9.20
2010,02,22,15,40,9.20
2010,02,22,15,41,9.20
2010,02,22,15,42,9.20
2010,02,22,15,43,9.20
2010,02,22,15,44,9.20
2010,02,22,15,45,9.20
2010,02,22,15,46,9.20
2010,02,22,15,47,9.20
2010,02,22,15,48,9.20
2010,02,22,15,49,9.20
2010,02,22,15,50,9.20
2010,02,22,15,51,9.20
2010,02,22,15,52,9.20
2010,02,22,15,53,9.20
2010,02,22,15,54,9.20
2010,02,22,15,55,9.20
2010,02,22,15,56,9.20
2010,02,22,15,57,9.20
2010,02,22,15,58,9.20
2010,02,22,15,59,9.20
2010,02,22,16,00,9.20
2010,02,22,16,01,9.20
2010,02,22,16,02,9.30
2010,02,22,16,03,9.30
2010,02,22,16,04,9.40
2010,02,22,16,05,9.40
2010,02,22,16,06,9.40
2010,02,22,16,07,9.50
2010,02,22,16,08,9.50
2010,02,22,16,09,9.60
2010,02,22,16,10,9.60
2010,02,22,16,11,9.70
2010,02,22,16,12,9.70
2010,02,22,16,13,9.70
2010,02,22,16,14,9.60
2010,02,22,16,15,9.50
2010,02,22,16,16,9.50
2010,02,22,16,17,9.40
2010,02,22,16,18,9.30
2010,02,22,16,19,9.30
2010,02,22,16,20,9.20
2010,02,22,16,21,9.20
2010,02,22,16,22,9.20
2010,02,22,16,23,9.20
2010,02,22,16,24,9.20
2010,02,22,16,25,9.20
2010,02,22,16,26,9.20
2010,02,22,16,27,9.20
2010,02,22,16,28,9.20
2010,02,22,16,29,9.20
2010,02,22,16,30,9.20
2010,02,22,16,31,9.20
2010,02,22,16,32,9.20
2010,02,22,16,33,9.10
2010,02,22,16,34,9.10
2010,02,22,16,35,9.00
2010,02,22,16,36,9.00
2010,02,22,16,37,9.00
2010,02,22,16,38,8.90
2010,02,22,16,39,8.90
2010,02,22,16,40,8.90
2010,02,22,16,41,8.90
2010,02,22,16,42,8.80
2010,02,22,16,43,8.80
2010,02,22,16,44,8.80
2010,02,22,16,45,8.70
2010,02,22,16,46,8.70
2010,02,22,16,47,8.70
2010,02,22,16,48,8.70
2010,02,22,16,49,8.70
2010,02,22,16,50,8.70
2010,02,22,16,51,8.70
2010,02,22,16,52,8.70
2010,02,22,16,53,8.70
2010,02,22,16,54,8.70
2010,02,22,16,55,8.70
2010,02,22,16,56,8.70
2010,02,22,16,57,8.60
2010,02,22,16,58,8.60
2010,02,22,16,59,8.60
2010,02,22,17,00,8.60
2010,02,22,17,01,8.60
2010,02,22,17,02,8.60
2010,02,22,17,03,8.70
2010,02,22,17,04,8.70
2010,02,22,17,05,8.70
2010,02,22,17,06,8.70
2010,02,22,17,07,8.70
2010,02,22,17,08,8.70
2010,02,22,17,09,8.70
2010,02,22,17,10,8.70
2010,02,22,17,11,8.70
2010,02,22,17,12,8.70
2010,02,22,17,13,8.60
2010,02,22,17,14,8.60
2010,02,22,17,15,8.60
2010,02,22,17,16,8.60
2010,02,22,17,17,8.60
2010,02,22,17,18,8.60
2010,02,22,17,19,8.60
2010,02,22,17,20,8.60
2010,02,22,17,21,8.70
2010,02,22,17,22,8.70
2010,02,22,17,23,8.70
2010,02,22,17,24,8.70
2010,02,22,17,25,8.70
2010,02,22,17,26,8.70
2010,02,22,17,27,8.70
2010,02,22,17,28,8.70
2010,02,22,17,29,8.70
2010,02,22,17,30,8.70
2010,02,22,17,31,8.70
2010,02,22,17,32,8.70
2010,02,22,17,33,8.70
2010,02,22,17,34,8.70
2010,02,22,17,35,8.70
2010,02,22,17,36,8.70
2010,02,22,17,37,8.70
2010,02,22,17,38,8.70
2010,02,22,17,39,8.60
2010,02,22,17,40,8.60
2010,02,22,17,41,8.50
2010,02,22,17,42,8.50
2010,02,22,17,43,8.40
2010,02,22,17,44,8.40
2010,02,22,17,45,8.40
2010,02,22,17,46,8.40
2010,02,22,17,47,8.40
2010,02,22,17,48,8.40
2010,02,22,17,49,8.30
2010,02,22,17,50,8.30
2010,02,22,17,51,8.30
2010,02,22,17,52,8.30
2010,02,22,17,53,8.30
2010,02,22,17,54,8.30
2010,02,22,17,55,8.30
2010,02,22,17,56,8.30
2010,02,22,17,57,8.20
2010,02,22,17,58,8.20
2010,02,22,17,59,8.20
2010,02,22,18,00,8.20
2010,02,22,18,01,8.10
2010,02,22,18,02,8.10
2010,02,22,18,03,8.00
2010,02,22,18,04,7.90
2010,02,22,18,05,7.90
2010,02,22,18,06,7.80